User: anonymous   Login
Location: Unspecified
(0.0000°N, 0.0000°E)
Time: 23:32:40
(UTC+00:00)
Language:

UFO 10 - Orbit

View from above orbital plane
View from above orbital plane
View from above satellite
View from above satellite

Ground track
Ground track

The orbit data is extracted from the following two-line orbital elements,

1 25967U 99063A   18068.44277580 0.00000000  00000-0  00000-0 0    09
2 25967   6.9068  38.2136 0005782 224.6541 135.3092  1.00270000    02
Epoch (UTC): 09 March 2018 10:37:35
Eccentricity: 0.0005782
inclination: 6.9068°
perigee height: 35762 km
apogee height: 35811 km
right ascension of ascending node: 38.2136°
argument of perigee: 224.6541°
revolutions per day: 1.00270000
mean anomaly at epoch: 135.3092°
orbit number at epoch: 0

The dashed part of the orbit path shows where the satellite is in the earth's shadow,  

DLR